Location: Gwatt
(46.7204°N, 7.6223°E)
Time: 21:33:41
(UTC+00:00)

S-56A Canister/Altair - Visible Passes

Search period start: 21 January 2021 00:00
Search period end: 31 January 2021 00:00
Orbit: 633 x 2499 km, 38.9° (Epoch: 20 January)

Date Brightness Start Highest point End Pass type
(mag) Time Alt. Az. Time Alt. Az. Time Alt. Az.
21 Jan 8.4 04:46:02 32° SSW 04:47:12 36° S 04:52:42 10° ESE visible
22 Jan 8.6 04:15:10 33° SSE 04:15:10 33° SSE 04:19:44 10° ESE visible
22 Jan 9.1 06:13:20 10° WSW 06:17:54 31° S 06:23:57 10° SE visible
23 Jan 9.3 03:44:16 23° SE 03:44:16 23° SE 03:46:50 10° ESE visible
23 Jan 8.9 05:41:42 14° WSW 05:45:19 31° S 05:50:57 10° SE visible
24 Jan 10.1 03:13:23 13° ESE 03:13:23 13° ESE 03:14:01 10° ESE visible
24 Jan 8.6 05:10:48 23° SW 05:12:47 31° S 05:18:00 10° SE visible
25 Jan 8.4 04:39:55 31° SSW 04:40:16 31° S 04:45:07 10° SE visible
26 Jan 8.8 04:09:02 27° SSE 04:09:02 27° SSE 04:12:20 10° ESE visible
26 Jan 9.5 06:07:27 10° WSW 06:10:53 18° SSW 06:14:58 10° SSE visible
27 Jan 9.6 03:38:09 17° SE 03:38:09 17° SE 03:39:37 10° ESE visible
27 Jan 9.2 05:35:35 12° WSW 05:38:20 19° SSW 05:42:16 10° SSE visible
28 Jan 8.9 05:04:44 18° SW 05:05:48 20° SSW 05:09:38 10° SSE visible
29 Jan 9.0 04:33:54 20° S 04:33:54 20° S 04:37:03 10° SSE visible
30 Jan 9.5 04:03:05 16° SSE 04:03:05 16° SSE 04:04:31 10° SE visible
